Lid_Strength_Index
-0 0 1 4 11 11 14 12 10 10 10 8 7 7 8 8 10 12 3 1 0 0 -0 -0 -2 -2 -2 -2 -2 -2 -1 -2 -2 -2 -2 -2 -2 -2 -1 -1 -1 -1 -1 -1 -2 -1 -2 -1 -2
0 1 2 7 13 16 15 11 11 9 8 6 6 7 8 10 5 5 4 1 -0 -0 -0 -0 -2 -2 -2 -2 -2 -2 -2 -2 -2 -2 -2 -2 -2 -2 -2 -2 -2 -2 -2 -2 -2 -2 -2 -2 -2
2 2 7 10 13 16 14 10 10 8 7 8 8 6 7 8 5 4 2 0 -0 0 -0 -0 -2 -2 -2 -2 -2 -2 -2 -2 -2 -2 -2 -2 -2 -2 -2 -2 -2 -2 -2 -2 -2 -2 -2 -2 -2
3 4 6 12 14 12 11 10 9 9 8 6 7 9 6 3 4 2 0 0 1 1 0 -1 -2 -2 -2 -2 -2 -2 -2 -2 -2 -1 -1 -1 -2 -2 -2 -2 -2 -2 -2 -2 -2 -2 -2 -2 -2
4 6 12 14 13 11 9 8 9 9 8 7 7 9 8 5 2 1 1 0 1 1 0 -0 -2 -2 -2 -2 -2 -2 -2 -2 -2 -1 -1 -1 -1 -1 -2 -2 -2 -2 -2 -2 -2 -2 -2 -2 -2
8 7 14 16 13 10 9 8 9 9 8 7 7 8 7 3 2 1 1 1 0 0 0 -0 -1 -2 -2 -2 -2 -2 -2 -1 -1 -1 -1 -1 -2 -2 -2 -2 -1 -1 -1 -1 -1 -1 -1 -1 -1
9 10 13 13 13 11 9 8 9 9 8 8 6 9 7 5 2 1 1 1 0 0 0 0 0 -1 -2 -2 -1 -1 -1 -1 -1 -1 -1 -2 -2 -1 -0 -0 -1 -1 -1 -0 -0 -0 -0 -0 0
7 9 13 12 13 12 8 8 7 8 8 5 5 9 9 4 2 1 1 1 1 1 0 1 0 0 0 -0 -1 -1 -1 -1 -1 -1 -2 -1 -1 -1 -1 -1 -1 -1 -1 -1 -0 0 0 0 0
5 12 14 13 12 11 8 9 8 8 7 6 5 6 5 2 2 2 2 2 1 1 2 1 0 0 0 -0 -1 -1 -1 -2 -2 -2 -2 2 5 4 3 -1 -1 -0 -0 0 1 1 2 3 2
8 12 12 9 9 9 8 9 10 8 8 8 7 5 3 3 3 4 4 3 3 2 2 1 1 1 1 -0 2 2 1 2 1 5 6 6 6 4 3 2 1 1 1 1 2 2 4 7 10
8 11 8 8 7 6 7 9 9 9 10 7 7 6 4 4 4 4 3 3 3 2 1 1 1 1 1 2 5 6 6 2 5 6 6 9 9 10 10 10 10 10 6 10 9 10 10 10 10
10 8 8 7 7 7 8 8 11 8 8 7 5 5 4 5 4 4 4 3 3 2 1 1 1 2 2 4 5 8 10 7 8 8 9 10 11 11 11 11 11 11 11 11 11 11 10 10 10
10 8 7 7 7 8 7 9 10 9 9 7 5 5 5 5 4 3 3 2 2 2 1 1 1 3 4 6 9 10 9 9 9 10 10 10 10 11 10 11 10 10 10 10 10 10 10 10 10
7 7 8 7 8 7 9 9 10 10 9 6 5 5 5 4 4 4 3 3 3 2 2 1 2 4 6 8 10 10 11 11 10 10 10 10 10 10 10 10 10 10 10 10 10 10 10 10 10
7 10 9 8 9 9 8 10 11 8 8 7 6 6 5 4 4 4 3 3 2 2 1 2 3 5 5 7 11 11 11 9 10 10 10 9 9 9 10 10 10 10 10 9 10 10 10 10 10
10 10 14 9 9 9 9 13 10 8 8 7 7 7 6 5 4 4 3 2 2 2 2 3 3 5 7 8 10 11 9 9 9 9 9 9 9 9 9 9 9 9 9 9 10 10 10 10 10
12 15 14 12 9 10 10 12 10 7 8 8 7 6 6 5 5 5 4 2 2 2 3 4 6 8 8 11 10 10 10 10 10 9 9 8 8 8 9 9 9 9 9 9 9 10 10 10 10
16 15 13 13 10 10 11 11 9 8 8 8 8 8 7 6 5 6 3 3 2 3 4 8 8 9 10 12 11 10 10 10 10 9 9 8 8 8 9 9 9 9 9 10 10 11 11 11 11
12 13 13 12 10 11 11 11 10 8 8 8 9 9 10 9 8 5 5 4 5 6 9 10 10 10 11 11 11 11 10 10 10 9 9 8 8 8 8 9 9 9 9 10 10 10 11 11 11
11 12 13 12 10 11 12 12 10 8 8 8 7 7 8 10 7 5 6 9 7 8 9 11 11 12 12 10 11 10 10 10 9 9 9 8 8 8 8 8 9 9 9 10 10 10 10 10 11
11 12 12 13 11 11 12 13 11 9 8 8 10 9 10 10 9 7 9 9 10 10 11 11 11 12 11 10 9 9 9 9 9 9 9 8 8 8 8 8 8 9 9 9 10 10 10 11 11
14 10 11 12 14 17 12 19 13 13 11 12 13 12 12 12 10 7 9 11 12 11 11 12 12 11 10 9 9 9 9 9 9 9 9 8 8 8 8 8 8 9 9 10 10 9 10 10 11
12 10 11 12 14 15 15 17 14 15 14 14 14 13 13 12 11 9 9 12 13 14 13 12 11 11 10 9 9 9 10 10 9 9 8 8 8 8 8 8 9 9 10 10 10 10 11 11 11
9 11 12 13 14 19 15 16 16 15 14 15 14 12 12 12 12 11 11 12 13 14 13 12 11 11 10 9 9 9 10 9 8 8 8 8 9 9 9 9 9 10 10 10 10 10 11 11 12
11 14 19 20 20 20 15 15 14 14 15 14 12 12 13 13 11 11 11 11 12 13 12 11 11 11 10 10 9 9 8 9 8 8 8 9 9 10 10 10 10 10 10 10 10 11 11 11 12
13 13 18 22 22 19 14 17 14 14 14 13 12 13 13 12 12 12 11 10 12 13 11 10 10 10 10 9 9 8 8 8 9 9 10 10 10 10 10 10 10 10 10 10 11 11 11 11 12
13 16 12 17 19 19 17 16 15 13 13 13 13 13 13 13 12 11 11 11 12 11 10 10 10 10 10 10 10 10 9 9 10 10 10 10 10 9 11 11 11 11 11 11 11 12 12 12 12
11 10 16 16 20 21 20 19 17 15 14 13 13 13 13 13 13 12 11 11 11 11 10 10 10 10 10 10 10 10 11 11 11 11 11 11 11 11 11 11 11 11 11 11 11 12 11 12 11
13 14 14 13 16 18 20 18 15 15 13 13 13 13 13 13 12 12 12 12 12 12 11 11 10 10 10 10 11 11 11 11 11 11 11 11 11 11 11 11 11 11 11 11 11 11 11 10 10
12 13 13 16 18 19 19 17 15 15 14 13 13 13 12 12 12 12 12 12 12 12 11 11 11 11 11 11 11 11 11 11 11 11 11 11 11 11 11 11 10 10 10 10 10 10 9 9 9